Regional Weather Roundup
Issued by NWS New Orleans/Baton Rouge, LA

Home | Current Version | Previous Version | Text Only | Print | Product List | Glossary On
Versions: 1 2 3 4 5 6 7 8 9 10 11 12 13 14 15 16 17 18 19 20 21 22 23 24 25 26 27 28
000
ASUS44 KLIX 231613
RWRLIX
NEW ORLEANS REGIONAL WEATHER ROUNDUP
NATIONAL WEATHER SERVICE NEW ORLEANS LA
1100 AM CDT SUN APR 23 2017

NOTE: "FAIR" INDICATES FEW OR NO CLOUDS BELOW 12,000 FEET WITH NO
      SIGNIFICANT WEATHER AND/OR OBSTRUCTIONS TO VISIBILITY.
      SKY/WX - SKY CONDITION AND SIGNIFICANT WEATHER.
      TMP - AIR TEMPERATURE.     DP    - DEWPOINT TEMPERATURE.
      RH  - RELATIVE HUMIDITY.   PRES  - PRESSURE.
      HI  - HEAT INDEX.          WCI   - WIND CHILL INDEX.

*  THESE STATIONS ARE NOT NWS OR FAA STATIONS AND ARE NOT UNDER
   NWS QUALITY CONTROL.

LAZ038-040-048-061>063-065>067-069-231700-
SOUTHEAST LOUISIANA

CITY           SKY/WX    TMP DP  RH WIND       PRES   REMARKS
N.O. INTL ARPT CLOUDY    62  56  80 NW12G20   29.95R
N.O. LAKEFRONT CLOUDY    65  60  84 NW24      29.94R
N.O. DOWNTOWN* LGT RAIN  63  59  87 NW10G18     N/A
RESERVE*       NOT AVBL
SLIDELL        CLOUDY    61  57  87 N13G20    29.94R
BATON ROUGE    CLOUDY    62  52  69 N7        29.99R
BOOTHVILLE     CLOUDY    69  60  73 NW8       29.92S
BELLE CHASSE   CLOUDY    64  58  80 NW10G20   29.93R
BOGALUSA*      NOT AVBL
GALLIANO*      CLOUDY    64  57  78 NW12      29.94F
NEW ROADS*     CLOUDY    57  53  85 N9        30.01S
GONZALES*      CLOUDY    61  55  78 N13       29.97F
HAMMOND*       CLOUDY    61  52  72 N13G21    29.96S
HOUMA*         NOT AVBL
PORT FOURCHON* CLOUDY    66  61  82 NW12      29.93S

$$

MSZ070-080>082-231700-
SOUTHERN MISSISSIPPI

CITY           SKY/WX    TMP DP  RH WIND       PRES   REMARKS
MCCOMB         PTSUNNY   62  48  60 NW16G23   29.97S
GULFPORT       CLOUDY    65  57  75 N12       29.91S
BILOXI         CLOUDY    64  57  77 N17G25    29.91R
PASCAGOULA     CLOUDY    63  56  78 N10       29.91R

$$

COASTAL OBSERVATIONS
LAKE AND NEARSHORE STATIONS

STATION/POSITION TIME  TEMP    WIND        PRES    WAVE
                       AIR SEA DIR/SP/G            HT/PER
                 (UTC) (F)     (DEG/KT/KT) (MB)    (FT/S)
PASCAGOULA       1548   65     350/ 13/ 18 1012.0
WAVELAND YACHT   1542   63 76  340/ 11/ 14 1013.0
GRAND ISLE       1548   67 77  340/ 10/ 15 1012.9
SOUTHWEST PASS   1548          350/ 12/ 14   N/A
NEW CANAL        1548   63 75  350/ 13/ 22 1013.7
SHELL BEACH      1542   66 78  320/ 15/ 18 1013.2

OFFSHORE STATIONS

STATION/POSITION TIME  TEMP    WIND        PRES    WAVE
                       AIR SEA DIR/SP/G            HT/PER
                 (UTC) (F)     (DEG/KT/KT) (MB)    (FT/S)
64 S DAUPHIN ISL 1550   71 76  320/ 16/ 21 1012.0    3/ 4

$$





USA.gov is the U.S. government's official web portal to all federal, state and local government web resources and services.